QPF
0.01 0.01 0.02 0.02 0.02 0.02 0.02 0.02 0.02 0.01 0.02 0.02 0.02 0.02 0.01 0.02 0.01 0.01 0.00 0.01 0.01 0.02 0.05 0.07 0.05 0.05 0.04 0.04 0.04 0.04 0.04 0.03 0.03 0.04 0.05 0.05 0.05 0.04 0.03 0.02 0.02 0.02 0.02
0.02 0.02 0.02 0.02 0.02 0.03 0.03 0.02 0.02 0.02 0.02 0.02 0.02 0.01 0.01 0.02 0.01 0.01 0.01 0.01 0.01 0.02 0.03 0.04 0.05 0.05 0.05 0.05 0.05 0.04 0.04 0.04 0.03 0.04 0.05 0.05 0.06 0.06 0.04 0.03 0.02 0.01 0.02
0.02 0.02 0.01 0.02 0.02 0.03 0.03 0.03 0.03 0.03 0.04 0.04 0.04 0.02 0.01 0.02 0.02 0.01 0.01 0.00 0.00 0.01 0.01 0.02 0.02 0.03 0.04 0.05 0.05 0.05 0.04 0.04 0.04 0.04 0.05 0.06 0.06 0.06 0.05 0.03 0.02 0.02 0.02
0.02 0.02 0.02 0.01 0.01 0.02 0.03 0.04 0.04 0.05 0.04 0.04 0.04 0.04 0.02 0.02 0.02 0.02 0.01 0.01 0.00 0.00 0.01 0.01 0.02 0.02 0.03 0.04 0.04 0.04 0.04 0.05 0.05 0.05 0.05 0.06 0.06 0.07 0.06 0.04 0.03 0.03 0.03
0.02 0.02 0.03 0.02 0.01 0.02 0.04 0.04 0.05 0.05 0.06 0.05 0.03 0.03 0.03 0.03 0.03 0.02 0.02 0.01 0.00 0.00 0.01 0.01 0.01 0.02 0.03 0.03 0.03 0.04 0.04 0.05 0.06 0.06 0.06 0.06 0.05 0.06 0.06 0.06 0.04 0.03 0.03
0.02 0.02 0.02 0.03 0.03 0.03 0.04 0.05 0.05 0.05 0.06 0.07 0.06 0.04 0.03 0.02 0.02 0.03 0.02 0.01 0.00 0.00 0.01 0.01 0.01 0.02 0.03 0.03 0.03 0.03 0.04 0.04 0.05 0.05 0.06 0.07 0.06 0.04 0.05 0.06 0.05 0.04 0.03
0.02 0.02 0.02 0.02 0.04 0.04 0.03 0.05 0.06 0.07 0.08 0.07 0.08 0.07 0.05 0.03 0.02 0.02 0.02 0.02 0.01 0.00 0.01 0.01 0.01 0.01 0.02 0.04 0.04 0.03 0.04 0.04 0.04 0.05 0.05 0.07 0.08 0.06 0.05 0.06 0.06 0.05 0.04
0.03 0.02 0.02 0.03 0.03 0.04 0.05 0.05 0.07 0.07 0.09 0.11 0.10 0.08 0.08 0.08 0.06 0.03 0.02 0.02 0.02 0.01 0.01 0.01 0.01 0.01 0.02 0.03 0.03 0.03 0.03 0.04 0.04 0.04 0.05 0.06 0.08 0.08 0.07 0.06 0.06 0.05 0.04
0.04 0.03 0.03 0.03 0.03 0.04 0.05 0.06 0.08 0.09 0.09 0.11 0.12 0.11 0.09 0.08 0.08 0.06 0.03 0.02 0.02 0.01 0.01 0.02 0.02 0.02 0.02 0.03 0.03 0.03 0.04 0.03 0.04 0.05 0.06 0.06 0.07 0.08 0.07 0.07 0.07 0.06 0.05
0.04 0.04 0.03 0.03 0.03 0.03 0.04 0.04 0.06 0.09 0.10 0.10 0.12 0.13 0.12 0.09 0.07 0.07 0.05 0.04 0.03 0.03 0.02 0.02 0.02 0.02 0.03 0.03 0.03 0.03 0.04 0.03 0.03 0.05 0.06 0.07 0.08 0.08 0.08 0.07 0.07 0.08 0.06
0.02 0.02 0.02 0.03 0.04 0.04 0.04 0.05 0.05 0.07 0.09 0.10 0.11 0.12 0.13 0.12 0.09 0.07 0.06 0.05 0.05 0.04 0.04 0.04 0.03 0.03 0.03 0.04 0.04 0.03 0.04 0.04 0.04 0.04 0.05 0.07 0.08 0.09 0.10 0.09 0.07 0.08 0.08
0.01 0.01 0.01 0.02 0.03 0.04 0.04 0.05 0.06 0.07 0.09 0.10 0.10 0.10 0.11 0.13 0.12 0.10 0.08 0.06 0.06 0.06 0.05 0.06 0.06 0.05 0.05 0.05 0.05 0.06 0.06 0.05 0.05 0.04 0.04 0.05 0.07 0.10 0.12 0.13 0.11 0.08 0.08
0.01 0.01 0.01 0.01 0.01 0.02 0.03 0.04 0.06 0.07 0.08 0.09 0.10 0.10 0.10 0.10 0.11 0.10 0.10 0.08 0.07 0.06 0.06 0.06 0.07 0.08 0.07 0.07 0.07 0.09 0.08 0.07 0.07 0.06 0.05 0.05 0.06 0.08 0.12 0.14 0.14 0.11 0.09
0.01 0.00 0.01 0.01 0.01 0.01 0.02 0.03 0.04 0.05 0.06 0.07 0.08 0.08 0.09 0.09 0.10 0.10 0.10 0.09 0.08 0.07 0.05 0.05 0.04 0.06 0.07 0.06 0.07 0.07 0.06 0.08 0.09 0.08 0.07 0.06 0.06 0.06 0.09 0.13 0.15 0.14 0.11
0.01 0.00 0.01 0.01 0.01 0.01 0.01 0.02 0.03 0.03 0.04 0.04 0.05 0.06 0.07 0.07 0.08 0.10 0.10 0.10 0.09 0.08 0.06 0.05 0.04 0.04 0.05 0.05 0.05 0.06 0.05 0.07 0.08 0.08 0.08 0.07 0.06 0.06 0.07 0.09 0.13 0.13 0.11
0.01 0.01 0.01 0.01 0.01 0.01 0.01 0.01 0.02 0.02 0.03 0.03 0.03 0.03 0.05 0.05 0.05 0.07 0.09 0.09 0.08 0.07 0.06 0.05 0.05 0.04 0.05 0.06 0.05 0.05 0.05 0.06 0.07 0.07 0.08 0.07 0.07 0.07 0.07 0.07 0.09 0.11 0.10
0.01 0.01 0.01 0.01 0.00 0.01 0.01 0.01 0.01 0.02 0.03 0.03 0.03 0.03 0.03 0.04 0.05 0.05 0.07 0.08 0.09 0.08 0.06 0.04 0.04 0.05 0.06 0.06 0.06 0.04 0.04 0.05 0.05 0.06 0.07 0.08 0.08 0.08 0.07 0.08 0.08 0.08 0.09
0.01 0.01 0.01 0.00 0.00 0.00 0.01 0.01 0.01 0.01 0.02 0.03 0.03 0.03 0.03 0.03 0.04 0.04 0.05 0.06 0.07 0.08 0.07 0.06 0.05 0.06 0.07 0.07 0.07 0.05 0.04 0.04 0.04 0.06 0.07 0.08 0.09 0.09 0.08 0.07 0.08 0.08 0.08
0.01 0.01 0.01 0.00 0.00 0.00 0.01 0.01 0.01 0.01 0.02 0.02 0.03 0.03 0.03 0.03 0.03 0.03 0.04 0.05 0.05 0.06 0.06 0.06 0.06 0.06 0.06 0.07 0.07 0.07 0.06 0.05 0.05 0.06 0.07 0.08 0.09 0.10 0.10 0.09 0.08 0.08 0.07
0.01 0.01 0.01 0.01 0.00 0.00 0.00 0.01 0.01 0.01 0.01 0.02 0.02 0.03 0.03 0.03 0.03 0.03 0.04 0.05 0.05 0.06 0.05 0.05 0.05 0.06 0.06 0.07 0.07 0.07 0.07 0.06 0.06 0.06 0.07 0.08 0.10 0.10 0.11 0.10 0.09 0.09 0.08
0.02 0.01 0.01 0.01 0.01 0.00 0.00 0.01 0.01 0.01 0.01 0.02 0.02 0.03 0.03 0.04 0.04 0.04 0.05 0.05 0.06 0.07 0.08 0.07 0.05 0.05 0.06 0.07 0.07 0.06 0.06 0.06 0.06 0.06 0.06 0.07 0.07 0.08 0.10 0.10 0.10 0.10 0.09
0.02 0.02 0.01 0.01 0.01 0.00 0.00 0.01 0.01 0.02 0.02 0.02 0.02 0.02 0.03 0.04 0.05 0.04 0.04 0.04 0.05 0.06 0.07 0.07 0.06 0.06 0.05 0.04 0.04 0.04 0.05 0.05 0.06 0.07 0.06 0.06 0.07 0.09 0.10 0.10 0.10 0.09 0.08
0.03 0.02 0.02 0.02 0.01 0.01 0.00 0.01 0.01 0.02 0.02 0.02 0.02 0.02 0.02 0.03 0.04 0.04 0.03 0.03 0.03 0.04 0.05 0.05 0.06 0.06 0.04 0.03 0.03 0.03 0.04 0.05 0.06 0.05 0.06 0.07 0.08 0.09 0.09 0.10 0.10 0.08 0.06
0.03 0.02 0.02 0.02 0.02 0.01 0.01 0.01 0.01 0.02 0.02 0.02 0.02 0.02 0.02 0.02 0.03 0.03 0.04 0.04 0.03 0.03 0.03 0.03 0.04 0.04 0.03 0.03 0.04 0.04 0.05 0.05 0.06 0.05 0.05 0.07 0.08 0.08 0.08 0.08 0.09 0.08 0.06
0.03 0.03 0.03 0.02 0.02 0.01 0.01 0.01 0.02 0.02 0.02 0.02 0.02 0.02 0.02 0.03 0.03 0.04 0.04 0.04 0.04 0.03 0.03 0.03 0.04 0.04 0.05 0.05 0.05 0.06 0.06 0.06 0.06 0.06 0.05 0.06 0.07 0.07 0.08 0.08 0.07 0.08 0.07
0.04 0.04 0.03 0.02 0.02 0.02 0.01 0.02 0.03 0.03 0.02 0.02 0.02 0.03 0.03 0.03 0.04 0.05 0.05 0.06 0.05 0.04 0.03 0.03 0.04 0.04 0.04 0.04 0.05 0.05 0.05 0.05 0.06 0.06 0.05 0.05 0.07 0.07 0.08 0.06 0.06 0.07 0.07
MSLP
1029.30 1029.44 1029.52 1029.54 1029.52 1029.47 1029.41 1029.34 1029.25 1029.16 1029.04 1028.88 1028.68 1028.44 1028.15 1027.81 1027.45 1027.06 1026.67 1026.28 1025.89 1025.50 1025.12 1024.74 1024.36 1024.00 1023.64 1023.31 1023.02 1022.75 1022.53 1022.34 1022.18 1022.04 1021.90 1021.74 1021.56 1021.33 1021.06 1020.74 1020.38 1020.00 1019.61
1029.37 1029.53 1029.62 1029.67 1029.66 1029.63 1029.58 1029.50 1029.41 1029.30 1029.16 1028.98 1028.76 1028.50 1028.21 1027.90 1027.57 1027.25 1026.93 1026.63 1026.33 1026.03 1025.72 1025.39 1025.04 1024.67 1024.28 1023.89 1023.52 1023.17 1022.86 1022.60 1022.39 1022.21 1022.04 1021.88 1021.70 1021.48 1021.23 1020.93 1020.59 1020.22 1019.84
1029.37 1029.55 1029.66 1029.73 1029.76 1029.75 1029.70 1029.63 1029.53 1029.40 1029.23 1029.03 1028.79 1028.53 1028.24 1027.95 1027.67 1027.40 1027.15 1026.93 1026.72 1026.51 1026.27 1026.01 1025.69 1025.32 1024.91 1024.47 1024.03 1023.60 1023.21 1022.86 1022.57 1022.33 1022.13 1021.94 1021.75 1021.53 1021.28 1021.00 1020.68 1020.34 1019.98
1029.35 1029.55 1029.70 1029.80 1029.86 1029.87 1029.84 1029.78 1029.67 1029.52 1029.33 1029.11 1028.85 1028.57 1028.29 1028.01 1027.76 1027.54 1027.35 1027.20 1027.06 1026.92 1026.75 1026.54 1026.26 1025.90 1025.48 1025.01 1024.51 1024.01 1023.54 1023.11 1022.74 1022.43 1022.16 1021.93 1021.71 1021.47 1021.22 1020.94 1020.63 1020.30 1019.96
1029.35 1029.57 1029.75 1029.89 1029.98 1030.03 1030.02 1029.97 1029.86 1029.70 1029.49 1029.25 1028.97 1028.68 1028.40 1028.13 1027.89 1027.69 1027.54 1027.42 1027.33 1027.24 1027.12 1026.95 1026.70 1026.37 1025.95 1025.47 1024.93 1024.38 1023.84 1023.33 1022.88 1022.49 1022.15 1021.86 1021.58 1021.31 1021.04 1020.74 1020.43 1020.10 1019.77
1029.36 1029.60 1029.81 1029.99 1030.12 1030.20 1030.23 1030.19 1030.09 1029.93 1029.72 1029.46 1029.18 1028.89 1028.59 1028.32 1028.08 1027.88 1027.74 1027.62 1027.54 1027.46 1027.36 1027.21 1026.99 1026.68 1026.28 1025.79 1025.24 1024.65 1024.06 1023.50 1022.97 1022.51 1022.10 1021.73 1021.39 1021.07 1020.75 1020.43 1020.10 1019.76 1019.42
1029.37 1029.62 1029.86 1030.07 1030.24 1030.36 1030.42 1030.42 1030.34 1030.19 1029.99 1029.75 1029.47 1029.18 1028.88 1028.60 1028.35 1028.13 1027.96 1027.82 1027.70 1027.60 1027.48 1027.33 1027.11 1026.81 1026.42 1025.95 1025.40 1024.80 1024.19 1023.58 1023.00 1022.47 1021.99 1021.56 1021.16 1020.78 1020.41 1020.04 1019.68 1019.32 1018.97
1029.34 1029.60 1029.86 1030.10 1030.31 1030.47 1030.57 1030.60 1030.56 1030.45 1030.28 1030.06 1029.81 1029.53 1029.25 1028.96 1028.69 1028.43 1028.20 1028.00 1027.82 1027.65 1027.48 1027.29 1027.06 1026.75 1026.38 1025.92 1025.39 1024.80 1024.18 1023.56 1022.95 1022.37 1021.84 1021.35 1020.89 1020.46 1020.04 1019.63 1019.24 1018.85 1018.49
1029.26 1029.53 1029.80 1030.06 1030.30 1030.49 1030.63 1030.70 1030.70 1030.64 1030.52 1030.35 1030.15 1029.91 1029.65 1029.36 1029.06 1028.76 1028.46 1028.17 1027.89 1027.63 1027.38 1027.12 1026.84 1026.52 1026.15 1025.71 1025.20 1024.64 1024.04 1023.42 1022.80 1022.21 1021.65 1021.12 1020.62 1020.14 1019.69 1019.24 1018.81 1018.40 1018.02
1029.12 1029.39 1029.67 1029.95 1030.20 1030.42 1030.59 1030.70 1030.75 1030.74 1030.68 1030.58 1030.43 1030.24 1030.01 1029.73 1029.41 1029.06 1028.68 1028.29 1027.91 1027.54 1027.18 1026.84 1026.51 1026.15 1025.77 1025.34 1024.86 1024.34 1023.77 1023.17 1022.57 1021.98 1021.41 1020.87 1020.35 1019.85 1019.37 1018.90 1018.45 1018.02 1017.62
1028.94 1029.22 1029.51 1029.79 1030.05 1030.28 1030.47 1030.60 1030.69 1030.73 1030.72 1030.68 1030.59 1030.45 1030.26 1030.00 1029.67 1029.28 1028.83 1028.35 1027.86 1027.38 1026.92 1026.49 1026.09 1025.70 1025.30 1024.89 1024.43 1023.94 1023.41 1022.86 1022.28 1021.71 1021.15 1020.61 1020.09 1019.58 1019.09 1018.61 1018.15 1017.70 1017.29
1028.74 1029.04 1029.33 1029.61 1029.86 1030.09 1030.27 1030.42 1030.52 1030.59 1030.62 1030.62 1030.59 1030.50 1030.34 1030.11 1029.78 1029.36 1028.86 1028.30 1027.72 1027.15 1026.59 1026.09 1025.62 1025.20 1024.79 1024.38 1023.96 1023.50 1023.01 1022.49 1021.96 1021.41 1020.87 1020.34 1019.83 1019.32 1018.83 1018.35 1017.88 1017.43 1017.00
1028.55 1028.87 1029.16 1029.43 1029.67 1029.88 1030.04 1030.17 1030.26 1030.33 1030.38 1030.40 1030.40 1030.34 1030.22 1030.00 1029.68 1029.24 1028.71 1028.11 1027.47 1026.83 1026.22 1025.65 1025.15 1024.70 1024.28 1023.88 1023.48 1023.05 1022.60 1022.11 1021.60 1021.08 1020.55 1020.04 1019.53 1019.04 1018.55 1018.07 1017.60 1017.15 1016.71
1028.38 1028.72 1029.01 1029.27 1029.49 1029.66 1029.78 1029.87 1029.92 1029.96 1029.99 1030.01 1030.01 1029.97 1029.86 1029.66 1029.35 1028.92 1028.38 1027.76 1027.10 1026.43 1025.79 1025.20 1024.67 1024.21 1023.79 1023.40 1023.01 1022.60 1022.16 1021.70 1021.20 1020.69 1020.18 1019.67 1019.17 1018.68 1018.20 1017.73 1017.26 1016.80 1016.36
1028.21 1028.56 1028.87 1029.11 1029.30 1029.42 1029.49 1029.52 1029.52 1029.51 1029.49 1029.48 1029.46 1029.40 1029.29 1029.10 1028.80 1028.38 1027.86 1027.25 1026.60 1025.93 1025.29 1024.70 1024.17 1023.71 1023.29 1022.91 1022.52 1022.12 1021.69 1021.22 1020.72 1020.21 1019.69 1019.18 1018.68 1018.19 1017.72 1017.25 1016.79 1016.34 1015.89
1028.01 1028.38 1028.68 1028.92 1029.07 1029.15 1029.16 1029.12 1029.05 1028.97 1028.89 1028.83 1028.76 1028.68 1028.55 1028.36 1028.06 1027.66 1027.17 1026.59 1025.96 1025.32 1024.70 1024.13 1023.61 1023.16 1022.75 1022.36 1021.97 1021.55 1021.11 1020.63 1020.12 1019.59 1019.06 1018.53 1018.03 1017.54 1017.06 1016.60 1016.16 1015.72 1015.29
1027.75 1028.13 1028.43 1028.64 1028.77 1028.81 1028.77 1028.66 1028.53 1028.37 1028.23 1028.10 1027.98 1027.85 1027.70 1027.48 1027.19 1026.81 1026.34 1025.79 1025.20 1024.60 1024.01 1023.46 1022.96 1022.51 1022.09 1021.69 1021.28 1020.84 1020.37 1019.86 1019.32 1018.77 1018.22 1017.68 1017.17 1016.68 1016.21 1015.77 1015.34 1014.92 1014.51
1027.42 1027.79 1028.07 1028.27 1028.38 1028.38 1028.29 1028.14 1027.94 1027.73 1027.52 1027.33 1027.15 1026.98 1026.78 1026.55 1026.25 1025.87 1025.42 1024.90 1024.34 1023.76 1023.20 1022.66 1022.17 1021.71 1021.27 1020.84 1020.40 1019.93 1019.42 1018.88 1018.32 1017.75 1017.18 1016.63 1016.11 1015.63 1015.17 1014.75 1014.35 1013.96 1013.59
1027.00 1027.35 1027.62 1027.81 1027.88 1027.86 1027.74 1027.55 1027.31 1027.05 1026.79 1026.54 1026.31 1026.09 1025.86 1025.60 1025.28 1024.90 1024.45 1023.94 1023.39 1022.82 1022.26 1021.72 1021.21 1020.73 1020.26 1019.79 1019.30 1018.79 1018.25 1017.69 1017.10 1016.52 1015.94 1015.40 1014.89 1014.42 1013.99 1013.59 1013.22 1012.87 1012.53
1026.53 1026.86 1027.10 1027.26 1027.32 1027.27 1027.13 1026.91 1026.63 1026.34 1026.04 1025.76 1025.49 1025.22 1024.95 1024.65 1024.31 1023.90 1023.44 1022.92 1022.36 1021.79 1021.21 1020.65 1020.11 1019.58 1019.07 1018.55 1018.02 1017.47 1016.90 1016.31 1015.72 1015.14 1014.58 1014.05 1013.56 1013.11 1012.70 1012.33 1011.99 1011.67 1011.37
1026.06 1026.35 1026.56 1026.69 1026.71 1026.64 1026.47 1026.22 1025.93 1025.61 1025.28 1024.97 1024.66 1024.36 1024.05 1023.71 1023.33 1022.89 1022.40 1021.85 1021.27 1020.67 1020.06 1019.46 1018.88 1018.30 1017.74 1017.17 1016.60 1016.02 1015.43 1014.84 1014.25 1013.68 1013.14 1012.64 1012.18 1011.76 1011.38 1011.03 1010.71 1010.41 1010.14
1025.62 1025.87 1026.04 1026.12 1026.10 1025.99 1025.79 1025.52 1025.20 1024.85 1024.50 1024.16 1023.82 1023.49 1023.14 1022.76 1022.33 1021.85 1021.32 1020.74 1020.13 1019.49 1018.84 1018.20 1017.57 1016.95 1016.34 1015.74 1015.14 1014.53 1013.93 1013.34 1012.77 1012.23 1011.73 1011.26 1010.83 1010.44 1010.07 1009.73 1009.42 1009.13 1008.86
1025.26 1025.45 1025.57 1025.60 1025.52 1025.36 1025.11 1024.80 1024.45 1024.07 1023.69 1023.32 1022.95 1022.57 1022.18 1021.76 1021.29 1020.77 1020.20 1019.58 1018.93 1018.26 1017.59 1016.92 1016.26 1015.61 1014.97 1014.34 1013.71 1013.10 1012.50 1011.92 1011.37 1010.86 1010.38 1009.95 1009.54 1009.16 1008.80 1008.46 1008.14 1007.83 1007.55
1024.96 1025.11 1025.17 1025.12 1024.98 1024.75 1024.44 1024.08 1023.68 1023.27 1022.85 1022.44 1022.03 1021.61 1021.18 1020.71 1020.20 1019.64 1019.03 1018.39 1017.71 1017.03 1016.34 1015.66 1014.99 1014.33 1013.68 1013.03 1012.41 1011.79 1011.20 1010.63 1010.10 1009.60 1009.14 1008.72 1008.32 1007.94 1007.58 1007.22 1006.88 1006.55 1006.24
1024.72 1024.81 1024.80 1024.68 1024.46 1024.16 1023.78 1023.35 1022.90 1022.44 1021.98 1021.53 1021.08 1020.62 1020.13 1019.62 1019.07 1018.47 1017.84 1017.18 1016.50 1015.82 1015.14 1014.47 1013.81 1013.16 1012.52 1011.88 1011.26 1010.64 1010.05 1009.48 1008.94 1008.45 1007.98 1007.55 1007.15 1006.76 1006.37 1006.00 1005.62 1005.26 1004.93
1024.49 1024.52 1024.43 1024.24 1023.94 1023.56 1023.11 1022.63 1022.13 1021.62 1021.12 1020.62 1020.13 1019.62 1019.09 1018.54 1017.95 1017.32 1016.67 1016.01 1015.34 1014.67 1014.02 1013.38 1012.76 1012.14 1011.52 1010.89 1010.27 1009.65 1009.04 1008.45 1007.89 1007.36 1006.87 1006.41 1005.97 1005.56 1005.15 1004.74 1004.35 1003.98 1003.64
Thickness
5585 5587 5589 5592 5595 5598 5600 5603 5605 5607 5610 5612 5614 5615 5617 5619 5621 5623 5624 5627 5629 5631 5633 5635 5636 5637 5639 5640 5641 5642 5643 5643 5644 5644 5645 5645 5645 5645 5645 5645 5645 5644 5644
5574 5576 5579 5582 5584 5587 5590 5593 5596 5598 5601 5603 5605 5607 5609 5611 5613 5615 5616 5618 5620 5622 5625 5626 5628 5629 5631 5633 5634 5635 5636 5637 5637 5638 5638 5639 5639 5639 5640 5639 5639 5639 5639
5563 5565 5568 5570 5573 5576 5580 5583 5586 5589 5592 5594 5596 5598 5600 5602 5604 5606 5608 5609 5611 5614 5616 5617 5619 5621 5623 5624 5626 5627 5628 5629 5630 5631 5632 5632 5633 5633 5634 5634 5634 5634 5634
5552 5554 5557 5559 5562 5565 5569 5572 5575 5578 5581 5583 5585 5588 5591 5593 5595 5597 5599 5600 5602 5604 5606 5608 5610 5612 5614 5615 5617 5619 5620 5621 5623 5624 5625 5626 5627 5627 5628 5628 5628 5628 5629
5541 5543 5545 5548 5551 5554 5557 5561 5563 5566 5569 5572 5575 5579 5581 5583 5586 5587 5589 5591 5592 5594 5596 5597 5599 5602 5604 5606 5608 5609 5611 5613 5614 5616 5618 5619 5620 5620 5621 5621 5622 5622 5623
5529 5531 5534 5536 5539 5542 5545 5549 5551 5555 5558 5561 5565 5568 5571 5573 5575 5577 5579 5580 5581 5583 5585 5586 5588 5591 5593 5595 5598 5600 5602 5604 5605 5607 5609 5611 5612 5614 5614 5615 5616 5616 5616
5517 5519 5522 5524 5527 5530 5533 5536 5539 5542 5546 5549 5553 5557 5560 5563 5565 5567 5568 5569 5570 5572 5573 5575 5577 5579 5582 5584 5587 5589 5592 5594 5596 5598 5600 5602 5604 5606 5607 5608 5609 5609 5610
5505 5507 5509 5511 5515 5518 5520 5523 5526 5529 5532 5535 5538 5542 5547 5551 5554 5557 5557 5558 5559 5560 5562 5563 5565 5567 5570 5572 5575 5578 5581 5584 5586 5588 5591 5593 5596 5598 5599 5600 5601 5602 5603
5492 5494 5497 5499 5502 5505 5506 5509 5512 5516 5518 5521 5524 5527 5531 5535 5538 5544 5546 5547 5547 5548 5549 5551 5553 5555 5557 5560 5563 5566 5569 5572 5575 5578 5581 5583 5586 5589 5591 5592 5593 5594 5595
5480 5482 5484 5486 5489 5491 5493 5496 5499 5502 5505 5508 5510 5513 5515 5518 5522 5528 5532 5533 5534 5535 5536 5538 5539 5541 5544 5547 5550 5553 5557 5560 5563 5567 5570 5573 5575 5578 5581 5583 5584 5585 5586
5468 5469 5471 5474 5476 5478 5480 5483 5486 5489 5492 5494 5497 5499 5501 5504 5507 5511 5517 5520 5520 5522 5523 5524 5526 5528 5531 5533 5536 5540 5544 5547 5551 5554 5558 5561 5564 5567 5570 5572 5574 5575 5576
5456 5457 5459 5461 5463 5465 5467 5470 5472 5475 5478 5480 5483 5485 5487 5490 5492 5494 5499 5504 5506 5508 5509 5510 5512 5515 5517 5520 5522 5525 5529 5533 5537 5541 5545 5548 5552 5555 5558 5561 5563 5565 5566
5445 5446 5447 5448 5450 5452 5454 5456 5459 5462 5464 5466 5468 5471 5473 5476 5477 5479 5481 5486 5489 5493 5495 5496 5498 5501 5503 5505 5508 5511 5515 5519 5522 5526 5530 5534 5538 5542 5545 5548 5551 5554 5555
5434 5435 5435 5436 5438 5439 5441 5443 5445 5448 5450 5452 5455 5457 5460 5462 5463 5465 5466 5468 5473 5478 5481 5483 5485 5486 5488 5490 5493 5496 5499 5504 5507 5511 5515 5520 5524 5528 5531 5535 5539 5541 5544
5422 5423 5423 5424 5425 5426 5427 5429 5431 5434 5436 5438 5441 5443 5446 5448 5450 5452 5453 5454 5456 5462 5469 5472 5471 5473 5474 5475 5477 5480 5484 5489 5493 5497 5501 5505 5510 5514 5518 5522 5525 5529 5531
5410 5411 5411 5411 5412 5413 5414 5415 5417 5420 5422 5425 5427 5430 5433 5435 5437 5439 5440 5441 5443 5445 5452 5458 5457 5458 5460 5461 5463 5466 5470 5475 5478 5483 5487 5491 5495 5500 5504 5508 5512 5516 5519
5399 5399 5399 5399 5400 5400 5401 5402 5404 5406 5408 5411 5414 5417 5421 5423 5425 5426 5427 5429 5430 5432 5435 5441 5442 5444 5446 5448 5450 5453 5456 5460 5465 5468 5473 5478 5482 5487 5491 5494 5499 5503 5506
5387 5387 5387 5387 5388 5388 5388 5389 5391 5393 5395 5398 5401 5404 5407 5410 5413 5414 5415 5416 5418 5420 5422 5426 5428 5430 5432 5435 5437 5440 5444 5446 5451 5454 5459 5463 5468 5473 5477 5481 5485 5489 5493
5375 5375 5375 5376 5376 5376 5376 5377 5379 5381 5383 5386 5388 5391 5395 5397 5400 5402 5403 5404 5406 5408 5409 5412 5416 5417 5419 5421 5423 5427 5430 5433 5436 5440 5444 5449 5454 5459 5463 5467 5470 5474 5479
5363 5364 5364 5364 5364 5364 5365 5366 5367 5369 5371 5373 5376 5380 5383 5386 5388 5390 5391 5393 5394 5395 5396 5399 5403 5405 5406 5408 5409 5412 5416 5419 5423 5427 5430 5435 5440 5444 5449 5453 5457 5461 5464
5351 5351 5351 5352 5352 5353 5354 5355 5356 5357 5359 5361 5364 5368 5371 5374 5377 5379 5380 5382 5383 5383 5384 5387 5390 5392 5394 5395 5396 5399 5402 5404 5409 5412 5416 5422 5426 5431 5434 5438 5442 5446 5449
5339 5339 5340 5340 5341 5342 5344 5345 5346 5347 5348 5351 5353 5356 5359 5361 5364 5366 5369 5370 5371 5372 5373 5375 5378 5381 5383 5383 5384 5386 5388 5391 5397 5400 5401 5407 5411 5415 5419 5423 5427 5431 5434
5327 5328 5328 5329 5330 5331 5332 5334 5335 5336 5338 5340 5342 5344 5347 5350 5352 5354 5355 5357 5359 5360 5362 5364 5367 5370 5372 5373 5372 5374 5375 5378 5382 5387 5388 5394 5397 5400 5404 5408 5412 5417 5420
5316 5316 5317 5318 5319 5320 5322 5323 5324 5325 5326 5328 5331 5333 5335 5338 5340 5343 5344 5346 5347 5349 5351 5353 5357 5359 5361 5361 5362 5363 5364 5365 5369 5373 5375 5378 5382 5385 5390 5394 5397 5401 5405
5306 5306 5307 5307 5308 5309 5310 5312 5313 5314 5316 5318 5320 5322 5324 5327 5330 5333 5334 5335 5337 5338 5339 5342 5345 5347 5349 5350 5351 5350 5351 5353 5356 5362 5363 5364 5368 5371 5376 5380 5384 5387 5390
5296 5296 5297 5296 5297 5298 5300 5301 5303 5304 5306 5308 5310 5312 5315 5318 5319 5321 5323 5324 5326 5327 5328 5330 5332 5334 5336 5337 5339 5339 5340 5341 5343 5348 5352 5352 5354 5355 5360 5367 5370 5373 5374